Location: *
(34.6903°N, 135.5184°E)
Time: 13:22:58
(UTC+00:00)

SJ-6F - Pass Details

Date: 22 September 2019
Orbit: 572 x 593 km, 97.7° (Epoch: 15 October)

Event Time Altitude Azimuth Distance (km) Brightness Sun altitude
Rises 19:20:46 0° 10° (N) 2,833 8.3 -18.2°
Reaches altitude 10° 19:22:56 10° 9° (N) 1,929 7.4 -17.8°
Maximum altitude 19:27:07 80° 283° (WNW) 606 4.3 -16.9°
Drops below altitude 10° 19:31:17 10° 197° (SSW) 1,915 6.8 -16.1°
Enters shadow 19:32:03 - 196° (SSW) 2,235 7.1 -15.9°
